Temp
20 20 20 22 23 25 26 29 32 30 30 28 28 28 28 29 29 26 24 23 24 23 24 24 24 23 23 22 22 21 21 20 20 19 19 19 19 19 19 18 18 17 17 17 17 17 17 17 17
20 20 21 23 24 25 29 31 29 28 28 27 27 28 28 28 26 26 24 23 22 22 23 23 23 22 22 22 21 21 21 21 20 19 19 19 19 19 19 18 18 17 17 17 17 17 17 17 17
19 20 22 24 25 25 28 30 28 28 27 27 28 28 28 26 25 24 22 21 22 22 22 22 22 21 22 21 21 21 21 20 20 19 19 19 19 19 18 18 18 17 17 17 17 17 17 17 17
19 21 22 23 25 28 29 30 29 29 28 27 27 27 27 25 24 23 22 21 22 22 21 21 21 21 21 21 21 20 20 20 20 20 19 19 18 18 18 18 18 18 17 17 17 17 17 17 17
20 22 23 24 26 28 29 30 30 29 28 28 26 26 27 24 23 22 21 20 21 21 20 19 20 20 20 20 20 20 20 20 20 20 19 19 18 18 18 18 18 18 18 17 17 17 17 17 17
21 23 23 24 26 29 30 30 28 27 27 27 26 26 27 25 24 22 22 20 20 20 19 19 19 19 19 19 19 19 20 19 19 19 19 18 18 18 18 18 17 17 17 17 17 17 17 17 16
21 23 23 25 26 27 29 29 28 27 26 26 25 25 26 25 23 23 23 21 20 19 18 18 18 19 19 19 19 19 19 19 19 19 19 18 18 18 18 18 17 17 17 17 17 17 17 16 16
22 23 22 24 24 25 28 28 26 26 25 24 24 25 25 24 23 23 23 23 20 20 18 18 18 18 18 18 18 18 19 19 18 18 18 18 18 17 17 17 17 17 17 17 17 16 16 16 16
21 21 22 24 25 25 26 25 25 25 24 24 24 24 24 23 23 23 22 23 21 20 18 18 18 18 18 18 18 18 18 18 18 18 18 18 17 17 17 17 17 17 17 17 16 16 16 16 16
22 22 23 26 26 24 24 23 23 23 23 23 24 24 23 23 22 22 22 22 22 22 21 19 18 17 17 17 17 17 17 18 18 17 17 17 17 17 17 17 17 17 17 16 16 16 16 16 16
22 21 23 24 24 22 22 22 22 22 22 23 22 22 22 21 21 21 21 21 21 22 22 20 19 18 17 16 16 17 17 17 17 17 17 17 17 17 16 17 16 17 17 16 16 16 16 16 15
22 22 22 22 22 21 21 21 20 21 21 21 21 21 20 20 20 20 20 20 20 21 22 22 20 20 18 17 17 17 17 17 17 17 17 17 17 16 16 15 16 16 16 16 16 16 16 16 15
20 21 21 21 20 20 20 20 20 20 20 21 21 20 20 20 20 20 20 19 19 19 20 21 20 20 19 18 18 17 17 17 16 17 17 17 16 16 16 15 15 16 16 16 16 16 15 15 15
20 20 19 19 20 20 20 21 20 20 21 20 20 20 20 20 20 20 20 19 19 19 19 19 20 19 19 18 18 18 17 16 16 16 16 16 16 16 16 15 15 15 15 15 15 15 15 15 15
18 17 19 20 21 21 20 19 21 22 21 20 20 20 20 20 20 19 19 19 18 18 18 18 19 19 19 19 19 18 17 17 17 16 16 16 16 16 16 16 15 15 15 15 15 15 15 15 16
17 18 18 22 21 21 20 18 22 21 21 21 20 20 20 19 17 15 15 14 14 17 18 18 18 19 17 18 18 17 17 17 17 16 16 16 16 16 15 16 16 15 15 15 15 15 15 16 16
20 18 20 21 22 21 19 19 21 20 20 20 19 16 14 13 12 14 13 13 15 16 15 17 17 18 18 17 18 18 16 16 17 17 17 16 16 16 15 16 16 16 15 15 15 15 15 15 16
18 19 19 19 21 21 20 19 20 20 20 16 14 13 12 11 10 9 11 12 11 13 13 13 16 16 17 17 16 16 17 16 16 17 16 17 16 17 16 15 16 16 15 15 15 15 15 15 15
17 17 17 19 20 19 18 18 19 18 15 13 12 11 10 9 9 7 5 5 6 9 10 10 12 14 16 16 16 15 15 17 15 16 16 16 16 16 16 16 16 15 16 15 15 15 15 15 15
16 16 17 19 20 18 18 18 19 15 13 12 10 8 7 6 5 5 4 3 2 4 5 6 10 12 13 15 15 16 15 15 16 15 16 17 15 16 16 16 15 15 16 15 15 16 15 14 14
17 17 17 17 17 18 18 18 15 15 14 11 9 6 5 4 3 3 3 2 0 0 3 3 6 10 13 15 15 15 15 15 15 15 15 15 16 16 16 15 15 15 16 16 15 15 15 15 14
15 18 16 16 15 14 17 14 18 15 13 11 8 6 4 2 2 1 1 0 -1 -1 1 3 6 8 12 14 14 14 15 13 15 15 15 15 15 16 16 15 14 15 15 15 15 15 15 14 14
14 16 15 15 15 15 16 16 15 13 10 9 7 5 3 1 1 -0 -1 -2 -1 -2 -0 1 5 8 11 12 14 14 14 15 14 16 15 16 15 15 17 16 14 14 15 15 15 15 15 14 14
15 15 15 16 15 14 17 17 10 10 8 7 6 4 1 1 -1 -2 -3 -3 -3 -2 -0 0 2 6 8 10 12 13 14 14 14 14 15 15 15 15 15 15 15 14 14 15 15 16 15 16 15
15 15 14 15 14 13 17 15 10 9 8 6 4 2 0 -1 -2 -3 -3 -4 -4 -4 -1 -0 1 2 3 5 8 12 13 13 14 13 15 15 14 14 15 16 16 15 14 15 15 15 16 17 16
14 14 13 12 13 14 16 13 7 9 7 5 3 1 -0 -1 -2 -3 -4 -4 -5 -5 -4 -2 -1 1 2 3 5 8 10 12 13 11 15 14 15 14 15 17 17 17 14 14 14 14 15 15 15
14 13 15 13 14 13 15 9 9 8 6 4 2 0 -1 -2 -3 -3 -4 -5 -5 -5 -4 -4 -1 -0 -0 1 2 6 7 9 10 11 14 14 15 14 14 15 16 14 13 14 16 14 15 14 15
14 15 13 13 11 12 14 10 8 4 4 3 1 -1 -1 -2 -3 -4 -5 -5 -5 -5 -5 -4 -2 -1 -2 -0 0 3 4 8 10 8 12 9 14 14 14 14 14 14 14 14 13 13 14 13 13
14 13 12 13 12 11 11 8 4 3 3 2 1 -1 -2 -3 -3 -4 -5 -5 -5 -4 -4 -4 -3 -3 -3 -1 -0 1 2 4 7 5 9 8 12 13 14 13 13 13 13 12 12 12 12 12 12
14 13 12 9 11 10 9 5 4 4 3 2 1 -1 -2 -3 -4 -4 -5 -5 -5 -4 -4 -4 -4 -4 -4 -3 -2 0 0 3 6 5 2 7 6 11 12 12 12 11 10 10 11 12 12 12 11
Height
1509 1510 1510 1511 1513 1499 1490 1470 1454 1464 1470 1477 1481 1483 1482 1479 1478 1490 1492 1490 1491 1488 1488 1490 1492 1495 1498 1501 1503 1506 1509 1512 1514 1517 1521 1522 1525 1526 1527 1528 1530 1532 1534 1534 1535 1537 1538 1539 1540
1510 1509 1513 1508 1508 1501 1477 1458 1470 1474 1478 1481 1483 1483 1481 1480 1482 1485 1486 1489 1490 1486 1487 1490 1492 1495 1498 1501 1504 1506 1509 1512 1515 1517 1520 1522 1525 1527 1528 1529 1531 1533 1535 1536 1536 1538 1539 1540 1540
1510 1511 1512 1502 1496 1498 1480 1466 1473 1478 1481 1483 1483 1484 1484 1486 1488 1490 1490 1488 1488 1487 1486 1487 1491 1494 1497 1500 1503 1506 1509 1512 1514 1517 1519 1522 1525 1527 1528 1530 1531 1534 1535 1537 1538 1539 1540 1541 1541
1512 1512 1511 1503 1496 1478 1469 1466 1473 1477 1481 1483 1485 1488 1486 1489 1491 1493 1492 1490 1489 1489 1485 1487 1490 1495 1497 1500 1504 1506 1509 1512 1514 1517 1520 1522 1525 1527 1529 1530 1532 1534 1535 1537 1539 1539 1540 1541 1542
1514 1510 1503 1498 1489 1477 1470 1466 1469 1475 1482 1484 1486 1489 1488 1490 1491 1492 1491 1490 1491 1490 1488 1488 1491 1495 1498 1500 1503 1505 1509 1511 1514 1517 1520 1522 1524 1527 1529 1531 1533 1534 1536 1538 1539 1540 1541 1542 1543
1511 1506 1504 1499 1482 1468 1466 1467 1472 1479 1485 1486 1488 1487 1488 1489 1490 1492 1491 1490 1491 1490 1490 1491 1493 1495 1498 1501 1504 1506 1509 1511 1514 1516 1520 1522 1524 1526 1528 1530 1533 1534 1536 1538 1539 1541 1541 1543 1544
1509 1503 1500 1492 1486 1477 1468 1470 1474 1481 1487 1490 1489 1489 1490 1491 1492 1492 1493 1491 1492 1493 1489 1492 1493 1495 1497 1500 1503 1506 1508 1510 1513 1515 1518 1522 1524 1526 1528 1529 1532 1534 1536 1538 1539 1540 1542 1543 1544
1507 1503 1501 1494 1492 1484 1472 1472 1478 1484 1488 1489 1491 1490 1489 1488 1491 1492 1493 1493 1490 1491 1491 1491 1491 1493 1496 1499 1501 1504 1507 1510 1512 1514 1517 1520 1523 1526 1527 1529 1531 1533 1535 1537 1539 1540 1541 1543 1544
1507 1507 1504 1493 1484 1480 1479 1480 1482 1488 1491 1491 1493 1493 1492 1489 1492 1492 1493 1493 1493 1490 1491 1490 1490 1491 1494 1497 1499 1502 1504 1507 1510 1513 1515 1518 1520 1523 1526 1528 1529 1532 1533 1536 1538 1539 1541 1542 1543
1504 1500 1493 1484 1482 1486 1486 1489 1490 1493 1492 1491 1491 1491 1492 1492 1493 1494 1495 1495 1493 1493 1489 1489 1489 1490 1492 1495 1496 1499 1502 1504 1506 1509 1512 1515 1519 1521 1524 1526 1528 1529 1532 1534 1536 1538 1540 1541 1542
1498 1499 1493 1489 1488 1492 1493 1494 1494 1494 1493 1492 1492 1492 1492 1493 1493 1494 1495 1495 1494 1492 1492 1489 1488 1488 1491 1494 1494 1496 1498 1500 1503 1505 1508 1512 1516 1519 1521 1523 1525 1527 1529 1531 1534 1536 1537 1540 1541
1493 1493 1495 1492 1492 1495 1496 1496 1495 1495 1491 1492 1492 1492 1492 1493 1494 1494 1493 1493 1492 1491 1489 1491 1486 1487 1488 1491 1493 1492 1495 1496 1498 1501 1504 1508 1512 1515 1519 1520 1523 1524 1526 1529 1531 1534 1536 1538 1540
1495 1495 1493 1492 1493 1495 1495 1494 1493 1489 1488 1489 1489 1490 1491 1491 1490 1491 1491 1491 1490 1488 1486 1484 1487 1482 1484 1487 1492 1489 1490 1491 1494 1497 1500 1503 1508 1510 1514 1518 1520 1522 1524 1526 1529 1531 1534 1536 1539
1494 1494 1494 1493 1491 1491 1490 1489 1489 1483 1484 1486 1487 1488 1488 1488 1488 1488 1489 1488 1487 1486 1485 1480 1480 1483 1478 1481 1486 1488 1487 1488 1490 1492 1494 1499 1503 1507 1510 1513 1517 1519 1521 1524 1526 1529 1531 1535 1537
1496 1496 1490 1484 1481 1482 1487 1488 1482 1478 1481 1484 1484 1484 1485 1486 1486 1487 1487 1486 1485 1484 1482 1481 1477 1478 1477 1475 1479 1482 1484 1487 1486 1489 1490 1494 1498 1501 1506 1510 1512 1516 1519 1522 1525 1528 1531 1532 1535
1492 1490 1489 1472 1478 1481 1485 1489 1478 1480 1480 1480 1480 1479 1481 1482 1481 1478 1479 1478 1478 1480 1479 1477 1476 1475 1475 1473 1472 1476 1477 1480 1482 1483 1487 1487 1492 1496 1499 1504 1508 1512 1515 1519 1521 1524 1527 1530 1532
1478 1488 1477 1471 1469 1475 1482 1484 1480 1482 1479 1477 1477 1480 1481 1481 1478 1477 1477 1476 1474 1472 1470 1472 1472 1469 1469 1469 1469 1468 1472 1474 1475 1477 1481 1482 1485 1489 1492 1498 1503 1509 1512 1515 1518 1520 1522 1525 1529
1485 1481 1477 1478 1472 1471 1475 1479 1479 1477 1474 1480 1484 1486 1486 1487 1486 1483 1476 1471 1470 1468 1465 1465 1465 1463 1462 1463 1462 1461 1461 1465 1466 1470 1473 1476 1476 1482 1486 1492 1498 1503 1507 1509 1513 1516 1519 1521 1525
1490 1490 1486 1477 1471 1475 1479 1479 1476 1476 1481 1488 1491 1492 1492 1491 1490 1487 1480 1475 1467 1462 1459 1456 1456 1453 1456 1454 1454 1454 1454 1453 1459 1461 1464 1469 1470 1476 1480 1484 1489 1494 1498 1503 1507 1511 1515 1517 1521
1491 1489 1484 1474 1470 1474 1476 1476 1469 1481 1489 1492 1496 1496 1494 1489 1485 1481 1477 1475 1469 1460 1454 1452 1447 1445 1446 1446 1446 1447 1447 1445 1449 1454 1456 1460 1459 1467 1473 1475 1481 1486 1492 1497 1501 1505 1509 1512 1517
1485 1484 1481 1482 1478 1475 1470 1468 1477 1481 1485 1492 1496 1498 1499 1496 1487 1482 1478 1472 1464 1457 1451 1443 1441 1437 1436 1437 1438 1439 1439 1440 1441 1444 1446 1448 1452 1456 1463 1468 1474 1478 1484 1489 1495 1499 1501 1506 1510
1488 1478 1483 1484 1483 1485 1472 1481 1466 1476 1484 1492 1495 1498 1495 1489 1488 1484 1478 1471 1465 1455 1448 1441 1433 1428 1425 1430 1429 1429 1431 1430 1429 1432 1435 1438 1445 1445 1452 1459 1467 1469 1476 1482 1486 1489 1494 1498 1503
1487 1483 1485 1483 1483 1478 1469 1472 1472 1481 1492 1496 1498 1497 1495 1495 1491 1485 1479 1472 1464 1455 1445 1435 1427 1421 1416 1414 1420 1420 1419 1421 1422 1421 1426 1428 1433 1436 1439 1449 1455 1462 1466 1474 1478 1479 1485 1489 1494
1484 1483 1477 1472 1474 1481 1457 1462 1494 1492 1502 1505 1504 1503 1500 1496 1490 1485 1478 1469 1461 1451 1441 1432 1424 1416 1411 1409 1407 1407 1410 1411 1413 1413 1414 1417 1424 1427 1431 1439 1446 1454 1461 1465 1467 1470 1475 1480 1483
1483 1478 1480 1469 1480 1478 1455 1465 1496 1501 1506 1512 1509 1505 1503 1497 1490 1483 1476 1470 1459 1449 1440 1432 1423 1412 1406 1403 1401 1399 1399 1398 1399 1400 1398 1406 1413 1418 1420 1428 1436 1441 1449 1454 1459 1463 1466 1470 1472
1481 1481 1486 1490 1480 1472 1455 1472 1507 1506 1510 1507 1510 1508 1506 1497 1491 1488 1481 1470 1461 1452 1443 1434 1423 1412 1407 1404 1401 1396 1390 1389 1384 1380 1382 1390 1399 1408 1412 1418 1427 1432 1438 1444 1451 1456 1464 1463 1469
1479 1486 1479 1486 1477 1475 1461 1497 1498 1504 1507 1509 1509 1506 1504 1497 1495 1489 1482 1474 1464 1452 1442 1434 1423 1413 1409 1404 1400 1394 1387 1382 1371 1373 1378 1379 1388 1398 1406 1411 1417 1426 1433 1439 1450 1456 1456 1454 1462
1479 1476 1485 1483 1489 1478 1462 1483 1495 1508 1508 1508 1507 1508 1505 1500 1497 1491 1483 1472 1464 1453 1442 1434 1421 1414 1413 1407 1402 1393 1389 1382 1375 1363 1358 1378 1368 1381 1396 1406 1413 1423 1430 1435 1443 1447 1447 1449 1455
1476 1478 1484 1481 1482 1481 1474 1492 1516 1517 1514 1511 1513 1510 1506 1501 1499 1492 1483 1473 1463 1451 1439 1432 1422 1420 1418 1407 1397 1392 1389 1381 1380 1382 1381 1371 1345 1361 1386 1399 1407 1419 1423 1420 1439 1444 1449 1446 1448
1472 1477 1482 1494 1485 1487 1490 1505 1515 1516 1515 1514 1514 1511 1507 1504 1499 1492 1483 1472 1462 1450 1443 1440 1434 1431 1420 1408 1398 1389 1388 1388 1379 1385 1389 1377 1362 1370 1383 1390 1397 1409 1410 1431 1433 1438 1440 1435 1441
Wind_Speed
3 6 12 11 6 6 14 18 7 4 4 11 9 6 10 8 12 5 12 12 5 10 8 13 20 18 17 16 15 13 12 13 14 13 12 11 9 9 10 11 11 10 9 9 8 7 6 6 3
4 1 8 10 7 10 10 6 16 14 14 8 4 5 4 10 17 10 18 17 8 9 12 14 22 20 18 17 16 14 13 13 15 14 13 13 11 10 11 11 11 10 9 8 7 7 6 4 3
2 4 9 6 11 12 14 10 10 9 9 4 3 3 3 7 13 11 18 16 8 10 15 15 24 22 19 17 17 15 14 14 16 15 14 13 12 11 11 11 11 10 8 7 6 5 5 4 3
5 8 10 7 14 18 18 4 8 2 6 5 3 9 4 7 8 12 15 13 3 9 11 12 25 23 20 18 17 16 15 16 16 16 16 14 13 12 12 12 11 9 7 6 5 5 4 4 3
7 9 10 14 16 16 17 15 4 5 7 10 10 7 8 9 9 11 12 11 5 5 10 9 20 23 21 19 18 16 15 17 17 16 17 16 14 13 13 12 12 11 9 7 6 5 4 4 3
11 13 10 12 16 16 14 13 7 10 7 9 6 11 7 4 7 12 13 10 7 6 10 11 11 22 21 19 18 16 16 17 17 17 17 17 16 15 14 13 12 11 9 8 7 6 5 5 4
12 9 14 17 16 18 18 6 5 2 8 10 8 7 7 13 13 13 9 10 3 5 10 10 14 22 22 21 19 17 17 17 18 18 18 18 17 16 16 15 14 12 10 8 7 7 6 5 5
14 10 17 14 14 17 16 7 9 9 12 16 12 6 8 20 19 13 9 10 6 1 12 14 13 23 25 23 21 19 18 18 19 19 20 19 19 18 18 17 15 13 12 10 9 8 8 6 6
9 9 11 15 16 12 18 18 8 9 14 11 10 14 16 21 18 9 10 12 6 5 8 14 14 19 26 25 23 22 20 20 20 21 22 21 22 21 20 18 17 15 14 12 11 10 9 7 6
10 9 14 14 13 12 18 15 17 18 19 19 19 15 14 14 14 14 16 18 18 15 10 13 16 14 22 23 26 25 24 24 24 26 25 25 24 23 22 21 19 18 16 14 14 13 11 9 7
15 14 16 19 20 14 14 19 19 20 16 19 21 22 21 20 20 21 22 20 20 20 19 14 19 19 20 20 23 25 28 28 28 28 29 27 26 25 24 23 23 21 20 18 17 16 14 11 6
14 15 17 22 15 14 15 19 20 21 23 22 21 20 19 18 17 18 19 19 18 19 19 16 19 23 24 20 26 25 28 31 32 32 31 30 29 27 26 23 24 24 23 20 19 18 16 13 12
14 15 19 20 14 16 18 19 20 26 24 17 14 11 15 15 12 11 13 17 18 19 21 21 14 24 28 30 26 28 24 29 32 33 33 32 32 31 28 27 25 24 24 22 19 17 14 13 12
16 17 18 22 22 19 18 14 15 23 15 7 10 11 14 14 15 15 18 21 22 23 24 23 20 20 29 31 33 28 27 28 29 31 34 34 33 34 31 32 27 24 24 19 17 14 15 10 14
11 14 17 22 23 7 6 13 11 4 4 6 14 17 18 19 16 16 19 21 23 24 25 26 27 19 31 33 32 34 33 30 34 32 32 33 35 34 31 31 30 28 26 23 23 21 20 17 16
10 13 12 2 6 5 2 11 9 17 17 21 21 18 17 16 21 21 20 24 28 26 26 28 28 30 19 34 34 37 36 39 31 35 35 36 34 37 33 32 33 31 30 26 25 25 20 21 17
13 9 9 8 7 7 9 8 11 18 19 20 13 26 29 33 34 30 31 32 28 25 29 28 27 32 34 26 39 37 42 36 42 36 37 38 37 39 37 32 32 30 29 28 30 25 22 26 23
10 9 13 14 13 14 14 14 12 18 12 25 24 24 26 29 31 34 34 35 33 30 27 27 31 33 32 37 35 42 42 44 38 39 43 38 42 40 41 33 34 30 33 32 31 27 23 25 25
8 12 15 14 13 11 12 14 14 15 22 21 21 25 27 28 27 30 34 38 37 31 27 27 29 26 40 38 32 41 43 47 42 47 45 41 43 43 48 38 38 34 33 32 30 30 27 24 20
9 13 15 13 11 10 15 16 5 17 17 19 24 26 29 34 35 36 37 38 40 37 30 36 33 32 34 43 42 34 46 48 53 44 53 53 41 43 53 44 42 38 38 31 30 31 30 23 24
12 11 12 13 14 15 17 14 19 15 18 21 25 26 26 28 34 36 37 38 42 40 33 37 34 27 31 40 44 47 41 47 45 49 46 46 52 47 45 53 41 42 39 41 30 29 31 32 26
11 7 6 12 11 11 13 6 14 13 16 18 27 28 32 35 35 34 36 37 37 39 38 38 35 29 19 37 42 44 41 45 49 54 48 43 49 51 50 50 48 43 39 40 34 32 30 28 31
7 8 10 14 14 15 17 9 7 12 17 19 25 30 32 31 32 35 36 37 35 38 35 38 36 30 23 21 34 42 44 42 48 54 48 46 48 50 49 46 52 45 36 32 38 40 35 31 28
10 11 15 16 13 9 16 11 12 9 16 16 21 25 29 31 32 34 36 36 34 35 33 32 33 30 28 26 27 37 45 45 45 51 52 45 46 49 49 47 44 53 41 36 40 40 37 34 33
7 11 6 3 6 8 8 7 8 13 14 15 19 25 28 28 33 37 40 40 36 34 32 28 25 26 26 31 31 35 44 39 48 57 58 49 43 48 53 48 42 44 51 49 45 43 40 34 35
4 6 5 5 6 11 19 5 6 11 15 19 20 21 24 29 33 34 36 37 37 34 32 28 26 20 19 21 23 31 33 44 51 51 55 50 53 49 52 48 41 40 47 54 47 43 35 35 34
3 5 7 7 14 11 6 9 9 14 15 19 23 25 26 30 32 34 34 34 35 34 30 30 24 22 25 20 17 13 12 18 29 30 49 48 50 48 44 41 40 39 43 45 42 36 38 34 37
8 5 4 4 4 8 2 8 4 15 16 17 18 22 25 29 33 33 34 37 37 37 37 32 25 24 26 18 18 13 5 7 20 7 24 17 53 43 44 43 40 38 40 36 37 37 41 39 43
9 5 4 6 6 6 7 4 3 9 11 13 16 19 24 29 33 32 35 38 38 38 42 40 38 28 27 17 22 20 19 17 15 15 30 8 40 44 39 35 30 28 26 29 36 33 39 38 38
3 2 2 2 7 7 4 3 4 8 11 14 16 20 22 24 30 34 34 39 41 41 41 42 39 36 29 25 24 22 21 22 21 16 14 14 23 33 37 38 29 18 17 17 20 28 35 30 29
Wind_Direction
266 344 340 290 249 224 262 256 70 69 133 75 28 336 340 299 5 55 72 42 43 243 237 216 198 187 186 177 174 173 172 184 190 189 186 176 177 167 156 155 152 154 151 151 151 150 149 147 149
273 125 275 274 253 271 270 76 55 48 46 39 269 276 272 60 30 22 359 350 348 272 236 233 204 191 188 182 179 177 175 184 193 193 191 182 182 176 165 161 162 161 154 155 153 149 146 147 141
272 319 274 231 240 258 283 64 75 64 55 27 310 45 328 22 33 16 354 343 346 231 237 236 205 192 190 188 184 182 180 185 193 196 194 190 186 184 175 170 168 169 165 164 159 151 148 146 147
297 247 248 257 267 284 286 43 94 345 342 122 27 301 33 62 46 9 358 357 41 199 254 234 198 193 191 191 190 188 185 188 193 199 197 194 192 187 184 181 171 175 173 173 170 163 154 157 158
255 270 257 263 267 266 281 293 230 340 337 316 25 305 329 100 62 23 8 6 75 197 226 246 201 195 194 194 195 193 191 192 195 200 202 197 197 192 188 187 183 181 183 180 182 177 165 163 151
259 250 268 265 262 256 238 265 16 0 313 302 283 264 282 95 36 24 359 7 103 239 243 238 230 205 197 198 201 198 198 197 199 201 204 203 201 196 192 191 193 189 188 187 184 183 168 164 152
255 275 261 274 289 301 301 357 294 5 343 293 6 317 282 75 33 16 359 354 21 191 265 251 244 216 204 202 205 204 204 203 202 204 205 206 207 201 197 195 197 197 193 193 188 183 174 166 156
257 280 274 270 276 282 299 292 7 354 323 335 332 284 311 328 354 340 337 322 320 313 243 263 263 215 208 205 207 207 207 209 207 206 207 207 209 207 202 200 201 200 199 197 193 189 184 177 168
265 263 261 263 272 340 340 353 3 336 300 308 298 288 298 313 333 342 335 321 324 311 217 262 266 224 212 210 211 208 208 209 209 211 210 210 209 208 208 205 205 205 203 198 198 196 195 190 187
229 259 259 287 336 336 323 328 326 323 307 302 299 303 310 312 315 309 312 309 306 306 278 238 260 250 222 215 217 212 210 209 208 210 211 211 211 210 210 209 209 206 206 202 201 202 201 202 204
250 255 275 304 316 327 304 302 306 306 299 296 313 313 308 306 305 301 298 296 295 292 291 248 234 241 233 222 231 223 214 212 211 211 213 213 211 213 210 212 210 207 206 207 205 207 205 206 194
246 272 286 294 308 298 297 298 293 287 281 293 298 301 301 300 296 293 296 298 297 292 286 289 244 244 237 221 220 237 229 217 214 214 215 212 209 210 208 217 214 212 210 211 211 213 213 200 186
292 284 278 285 289 281 284 283 285 283 286 288 292 299 301 300 299 301 304 305 305 303 292 282 299 243 230 222 218 224 233 229 222 218 216 215 209 211 207 213 218 216 216 215 215 222 216 205 192
291 296 286 278 276 273 270 290 290 273 287 330 318 300 302 311 320 314 309 310 304 296 291 273 272 274 237 231 219 223 224 222 226 221 221 216 211 215 211 210 213 213 215 213 216 215 221 216 215
292 283 284 273 252 238 332 272 249 30 184 317 309 306 304 305 313 319 321 318 312 300 291 289 276 288 244 239 239 219 227 215 227 220 220 221 213 212 215 217 213 209 211 205 211 210 211 210 230
265 262 275 216 139 200 279 294 298 340 321 312 307 307 308 331 8 2 353 348 341 315 293 283 279 268 274 245 241 233 228 223 212 216 215 220 218 210 216 220 218 211 216 202 212 215 210 217 217
235 253 253 216 228 152 197 276 314 319 301 293 341 33 16 5 355 338 331 324 315 317 335 288 285 275 265 265 244 240 227 228 218 217 211 218 218 212 211 214 220 216 215 219 211 211 217 215 213
336 282 307 296 302 307 307 309 313 302 324 42 32 21 12 3 355 343 324 315 305 301 311 325 290 279 272 264 253 239 235 226 229 213 216 216 217 217 207 210 216 217 217 219 218 210 220 230 230
314 294 288 289 296 326 295 299 304 62 58 42 25 14 5 357 346 340 337 330 320 300 299 306 298 280 274 267 267 244 234 230 226 219 213 211 221 219 210 202 211 209 213 218 219 215 216 226 215
283 279 278 286 307 314 306 300 36 83 67 46 25 11 0 352 345 344 339 332 323 318 308 317 295 277 275 261 260 256 242 232 229 223 222 214 221 220 211 202 206 207 213 214 222 216 209 214 207
262 272 291 307 313 293 283 284 125 115 59 34 23 11 2 354 348 340 336 332 327 327 317 311 298 295 274 260 259 255 254 240 235 227 221 223 218 223 216 205 197 213 209 210 219 219 212 213 216
275 301 322 291 296 291 323 281 291 56 36 24 14 5 1 358 349 340 335 331 330 325 316 302 300 303 281 260 253 251 253 238 231 227 219 217 213 224 223 215 201 213 213 211 208 223 219 215 221
267 323 287 284 283 282 271 256 78 53 23 15 8 4 0 355 347 342 338 333 329 327 328 316 305 300 280 276 254 255 253 253 237 233 223 211 214 215 227 220 209 203 218 211 206 219 221 220 222
280 285 272 251 246 266 266 240 46 24 23 12 8 7 359 351 348 347 340 338 333 330 333 328 314 302 298 279 258 246 255 248 248 230 222 211 205 209 219 220 218 208 205 214 213 216 217 225 220
233 277 300 211 202 238 134 286 59 41 39 24 18 10 359 354 354 350 347 342 342 342 343 340 331 316 319 303 291 255 251 257 247 233 215 210 206 204 219 220 220 211 206 212 217 217 220 224 219
314 312 292 304 309 314 317 112 90 51 38 31 17 12 0 2 357 350 349 351 348 347 349 347 350 355 354 351 314 272 269 261 253 245 214 208 207 211 214 219 216 215 207 213 217 218 223 217 230
137 242 324 287 276 264 229 98 120 28 18 14 12 5 1 2 353 351 352 357 356 2 3 1 3 13 16 8 349 282 288 261 260 249 217 213 203 201 198 209 216 211 206 214 223 221 222 224 229
234 341 274 224 278 298 125 141 8 354 355 359 11 2 355 358 351 351 355 6 8 15 14 9 16 12 8 16 14 52 57 165 216 263 218 260 188 188 183 192 200 200 214 214 220 226 221 229 238
197 208 259 305 281 279 299 83 20 355 1 360 355 0 352 355 349 351 357 9 11 17 22 19 25 17 5 26 37 44 45 86 106 88 222 309 144 175 187 192 192 201 198 211 218 222 229 233 243
339 88 338 312 297 327 268 144 54 19 10 0 353 355 352 350 350 354 2 9 13 18 19 18 21 17 23 25 35 50 51 58 80 68 14 144 96 148 167 177 168 156 145 190 204 221 229 237 240